Retour au catalogue

ARABSAT 5C

ActifCommunicationsGEO
NORAD 37810·PAYLOAD·🇦🇪 UAE🇸🇦 Saudi Arabia

Lancé Sep 21, 2011 depuis Guiana Space Centre

Loading…

TLE

FraisSource: Space-Track

Époque: Sep 14, 2026, 13:53 UTC

1 37810U 11049B   26257.57908770  .00000116  00000-0  00000-0 0  9997
2 37810   0.0564 347.3397 0004269 196.3683  38.3489  1.00273826 54934

Suivez ARABSAT 5C en temps réel avec AllMySat

Download on the App Store